Regional Weather Roundup
Issued by NWS

Home | Current Version | Previous Version | Graphics & Text | Print | Product List | Glossary Off
Versions: 1 2 3 4 5 6 7 8 9 10 11 12 13 14 15 16 17 18 19 20 21 22 23 24 25 26 27 28 29 30 31 32 33 34 35 36 37 38 39 40 41 42 43 44 45 46 47 48 49 50

000
ASUS43 KMPX 080110
RWRMN
WEATHER ROUNDUP FOR MINNESOTA
NATIONAL WEATHER SERVICE TWIN CITIES/CHANHASSEN MN
700 PM CST SUN FEB 07 2016


NOTE: "FAIR" INDICATES FEW OR NO CLOUDS BELOW 12,000 FEET WITH NO
SIGNIFICANT WEATHER AND/OR OBSTRUCTIONS TO VISIBILITY. N/A MEANS
CURRENT SKY AND/OR WEATHER CONDITIONS ARE NOT AVAILABLE.

MNZ060>063-068>070-080200-
   Twin Cities Metro

CITY           SKY/WX    TMP DP  RH WIND       PRES   REMARKS
TWIN CITIES    LGT SNOW  27  22  81 NW21G29   29.72R WCI  13
ST PAUL        LGT SNOW  26  22  84 NW29G37   29.73R FOG     WCI  10
CRYSTAL        LGT SNOW  26  21  81 NW25G33   29.72R WCI  11
BLAINE         LGT SNOW  28  25  86 W22G30    29.70R WCI  15
LAKEVILLE      CLOUDY    28  25  86 W24G30    29.70R WCI  14
EDEN PRAIRIE   LGT SNOW  27  22  81 NW20G26   29.72R WCI  13
SOUTH ST PAUL  LGT SNOW  31  24  75 W17G24    29.71R WCI  19
LAKE ELMO      LGT SNOW  28  27  93 W17G25    29.70R WCI  16
$$
MNZ001>005-007-008-013>017-022>024-027-028-080200-
   Northwest Minnesota

CITY           SKY/WX    TMP DP  RH WIND       PRES   REMARKS
BEMIDJI        LGT SNOW  10   6  84 NW22      29.78R WCI  -9
HALLOCK        LGT SNOW  10   7  85 N31G44    29.96R VSB 3/4 WCI -12
ROSEAU         LGT SNOW   9   3  78 NW22      29.88R VSB 1   WCI -11
WARROAD        LGT SNOW   7   1  78 NW23G35   29.85R WCI -14
CROOKSTON      HVY SNOW  12  10  92 N33G39    29.96R VSB 1/4 WCI -10
FOSSTON        LGT SNOW   9   5  85 NW20G25   29.87R WCI -11
DETROIT LAKES  LGT SNOW  12  10  92 NW29G39   29.86R VSB 1   WCI  -9
MOORHEAD       MIX PCPN  16  12  86 N32G39    29.94R WCI  -5
PARK RAPIDS    LGT SNOW  12   5  73 NW21G35   29.77R WCI  -7
MAHNOMEN       LGT SNOW  10   6  85 NW22G36   29.88R VSB 1   WCI -10
$$
MNZ006-009>011-018-025>026-080200-
   North Central Minnesota

CITY           SKY/WX    TMP DP  RH WIND       PRES   REMARKS
BAUDETTE       LGT SNOW   8   2  76 NW25G36   29.78R WCI -13
FLAG ISLAND    LGT SNOW   7   1  78 NW29      29.82R WCI -16
INTL FALLS     LGT SNOW  20  14  77 N20G25    29.68R WCI   4
WASKISH        LGT SNOW  12   9  85 NW15      29.78R WCI  -4
LONGVILLE      LGT SNOW  14  10  85 W16G26    29.73R WCI  -2
GRAND RAPIDS   CLOUDY    18  12  79 NW14G25   29.66R WCI   4
CRANE LAKE     CLOUDY    25  23  93 NW13G20   29.61R WCI  13
ORR            MIX PCPN  23  19  86 NW12      29.60R WCI  12
COOK           LGT SNOW  23  19  86 NW14G23   29.60R WCI  11
WALKER         LGT SNOW  12   6  79 NW21G26   29.75R WCI  -7
$$
MNZ012-019>021-037-080200-
   Northeast Minnesota

CITY           SKY/WX    TMP DP  RH WIND       PRES   REMARKS
DULUTH         LGT SNOW  26  21  81 NW23G33   29.55R WCI  11
ELY            LGT SNOW  28  27  93 NW8G18    29.53R WCI  20
HIBBING        LGT SNOW  20  16  84 W16G28    29.60R FOG     WCI   6
EVELETH        CLOUDY    25  21  86 NW13G25   29.59R WCI  13
DULUTH HARBOR  FLURRIES  30  27  86 W16G23    29.59R WCI  19
TWO HARBORS    LGT SNOW  34  27  75 NW9G18    29.51R WCI  26
SILVER BAY     LGT SNOW  34  30  86 CALM      29.52R
GRAND MARAIS     N/A     28  22  78 NE8G18    29.55R WCI  20
G MARAIS ARPRT LGT SNOW  19  16  86 N15       29.50S WCI   5
$$
MNZ029>031-032-039>041-046>048-054>057-064-080200-
   West Central Minnesota

CITY           SKY/WX    TMP DP  RH WIND       PRES   REMARKS
FERGUS FALLS   LGT SNOW  16  12  86 N28G35    29.92R WCI  -4
WHEATON        LGT SNOW  23  19  86 NW24G33   29.93R WCI   7
MORRIS         LGT SNOW  19  14  79 N35G40    29.86R WCI  -1
ALEXANDRIA     FLURRIES  17   8  67 NW32G48   29.81R WCI  -3
ELBOW LAKE     LGT SNOW  17  12  81 NW23G35   29.87R WCI  -1
WADENA         LGT SNOW  12   7  79 NW31G39   29.79S WCI -10
GLENWOOD       MOCLDY    19  12  73 NW22G38   29.82R WCI   3
APPLETON       LGT SNOW  25  18  74 N26G35    29.88R WCI   9
BENSON         LGT SNOW  21  14  73 N24G36    29.86R WCI   4
ORTONVILLE     CLOUDY    25  14  63 NW24G38   29.89R WCI   9
MADISON        CLOUDY    27  18  69 NW29G37   29.90R WCI  11
WILLMAR        LGT SNOW  25  18  74 NW30G43   29.84R WCI   8
$$
MNZ033>034-036-042>043-049>051-058-059-080200-
   Central Minnesota

CITY           SKY/WX    TMP DP  RH WIND       PRES   REMARKS
ST CLOUD       LGT SNOW  19  13  77 NW31G38   29.76R WCI   0
SAUK CENTRE    LGT SNOW  17  13  86 NW20G33   29.80R VSB 1   WCI   0
PAYNESVILLE    LGT SNOW  21  17  84 NW20G35   29.80R WCI   6
AITKIN         FLURRIES  19  10  68 NW13G23   29.69R WCI   7
PINE RIVER     LGT SNOW  14   9  79 NW13G24   29.78R WCI   0
BRAINERD       LGT SNOW  16   9  74 NW23G33   29.74R WCI  -2
STAPLES        LGT SNOW  12   7  79 NW23G30   29.78R WCI  -7
LONG PRAIRIE   SNOW      16  12  86 W25G35    29.79R VSB 1/2 WCI  -3
LITTLE FALLS   FLURRIES  18  10  73 NW15G24   29.77R WCI   3
LITCHFIELD     LGT SNOW  25  21  86 NW17G30   29.79R WCI  11
BUFFALO        CLOUDY    24  16  70 NW22G31   29.76R WCI   9
MAPLE LAKE     LGT SNOW  24  19  81 W17G28    29.77R WCI  11
$$
MNZ037-044-045-052-053-080200-
   East Central Minnesota

CITY           SKY/WX    TMP DP  RH WIND       PRES   REMARKS
PRINCETON      LGT SNOW  21  18  86 W25G36    29.71S WCI   4
MORA           FLURRIES  25  18  74 NW20G30   29.70R WCI  11
CAMBRIDGE      LGT SNOW  25  18  74 W14G25    29.69R WCI  13
RUSH CITY      CLOUDY    24  19  82 NW17G24   29.68R WCI  11
MOOSE LAKE     LGT SNOW  25  19  80 NW10G24   29.62R WCI  15
HINCKLEY       LGT SNOW  27  21  80 NW13G22   29.66R WCI  16
CLOQUET        LGT SNOW  25  21  86 W16G25    29.58R WCI  12
MCGREGOR       CLOUDY    21  18  86 NW15G23   29.67R WCI   8
$$
MNZ071>073-080-081-089-090-097-098-080200-
   Southwest Minnesota

CITY           SKY/WX    TMP DP  RH WIND       PRES   REMARKS
MONTEVIDEO     LGT SNOW  23  19  86 N30G40    29.88R VSB 1   WCI   5
GRANITE FALLS  CLOUDY    28  20  71 NW29G40   29.87R WCI  12
CANBY          CLOUDY    28  21  74 W21G35    29.91R WCI  15
MARSHALL       LGT SNOW  26  21  81 NW26G32   29.86R WCI  10
REDWOOD FALLS  FLURRIES  27  22  81 NW16G29   29.83R WCI  15
OLIVIA         LGT SNOW  28  23  80 NW28G35   29.82R WCI  13
PIPESTONE      LGT SNOW  27  16  63 N28G37    29.89R VSB 3/4 WCI  11
WINDOM         LGT SNOW  27  25  93 NW30G39   29.82R VSB 3/4 WCI  10
WORTHINGTON    CLOUDY   N/A N/A N/A NW31G38   29.85R
JACKSON        LGT SNOW  30  25  80 NW29G38   29.82R WCI  15
TRACY          LGT SNOW  28  23  82 NW23G30   29.86R WCI  13
SLAYTON        LGT SNOW  25  23  93 NW33G41   29.85S WCI   7
$$
MNZ065>067-074>077-082>085-091>093-080200-
   South Central Minnesota

CITY           SKY/WX    TMP DP  RH WIND       PRES   REMARKS
MANKATO        CLOUDY   N/A N/A N/A NW30G38   29.76R
NEW ULM        LGT SNOW  28  25  86 NW20G28   29.80R WCI  15
ST JAMES       MIX PCPN  30  27  86 NW24      29.82R WCI  16
FAIRMONT       CLOUDY    30  23  74 NW25G36   29.79R WCI  16
GLENCOE        LGT SNOW  27  25  90 NW20G25   29.77R WCI  14
FARIBAULT      CLOUDY    30  25  80 W21G32    29.73R WCI  17
OWATONNA       LGT RAIN  32  27  80 NW29G36   29.72R WCI  18
WASECA         CLOUDY    32  27  80 NW30G37   29.76R WCI  18
ALBERT LEA     FLURRIES  34  27  75 NW21G29   29.73R WCI  22
$$
MNZ078>079-086>088-094>096-080200-
   Southeast Minnesota

CITY           SKY/WX    TMP DP  RH WIND       PRES   REMARKS
ROCHESTER      CLOUDY    33  31  92 W17       29.67S WCI  22
RED WING       CLOUDY    36  23  60 NW18G26   29.67R
STANTON        CLOUDY    33  26  74 W25       29.69R WCI  21
DODGE CENTER   MIX PCPN  34  32  93 NW18      29.67S WCI  23
WINONA         CLOUDY    37  32  81 W8G21     29.67S
AUSTIN         LGT SNOW  34  30  86 W20       29.70S WCI  22
PRESTON        CLOUDY    33  30  89 W15G22    29.68F WCI  23
$$
ABBREVIATIONS USED IN REMARKS
   TC - TEMPERATURES IN CELSIUS
  WCI - WIND CHILL INDEX
   HX - HEAT INDEX
  VSB - VISIBILITY
$$




USA.gov is the U.S. government's official web portal to all federal, state and local government web resources and services.